Location: Gleizolles
(44.4833°N, 6.7667°E)
Time: 03:23:35
(UTC+00:00)

N. Korean satellite - Pass Details

Date: 08 December 2021
Orbit: 447 x 491 km, 97.3° (Epoch: 23 January)

Event Time Altitude Azimuth Distance (km) Brightness Sun altitude
Rises 06:02:50 0° 351° (N) 2,461 9.8 -9.3°
Reaches altitude 10° 06:05:53 10° 320° (NW) 1,581 8.6 -8.8°
Maximum altitude 06:07:16 12° 296° (WNW) 1,453 8.3 -8.6°
Drops below altitude 10° 06:08:39 10° 271° (W) 1,577 8.6 -8.4°
Sets 06:11:42 0° 240° (WSW) 2,445 9.8 -7.9°
